Year,Month,Day,Hour,Minute,Value (Times are PST for temperature in C)
2019,07,11,00,00,21.40
2019,07,11,00,01,21.30
2019,07,11,00,02,21.30
2019,07,11,00,03,21.30
2019,07,11,00,04,21.20
2019,07,11,00,05,21.20
2019,07,11,00,06,21.10
2019,07,11,00,07,21.10
2019,07,11,00,08,21.10
2019,07,11,00,09,21.10
2019,07,11,00,10,21.10
2019,07,11,00,11,21.10
2019,07,11,00,12,21.00
2019,07,11,00,13,21.00
2019,07,11,00,14,21.00
2019,07,11,00,15,21.00
2019,07,11,00,16,21.00
2019,07,11,00,17,21.00
2019,07,11,00,18,21.00
2019,07,11,00,19,21.00
2019,07,11,00,20,21.00
2019,07,11,00,21,21.00
2019,07,11,00,22,21.00
2019,07,11,00,23,21.00
2019,07,11,00,24,20.90
2019,07,11,00,25,20.90
2019,07,11,00,26,20.90
2019,07,11,00,27,20.90
2019,07,11,00,28,20.80
2019,07,11,00,29,20.80
2019,07,11,00,30,20.80
2019,07,11,00,31,20.80
2019,07,11,00,32,20.80
2019,07,11,00,33,20.70
2019,07,11,00,34,20.70
2019,07,11,00,35,20.70
2019,07,11,00,36,20.70
2019,07,11,00,37,20.60
2019,07,11,00,38,20.60
2019,07,11,00,39,20.50
2019,07,11,00,40,20.50
2019,07,11,00,41,20.40
2019,07,11,00,42,20.40
2019,07,11,00,43,20.30
2019,07,11,00,44,20.30
2019,07,11,00,45,20.20
2019,07,11,00,46,20.20
2019,07,11,00,47,20.10
2019,07,11,00,48,20.10
2019,07,11,00,49,20.00
2019,07,11,00,50,20.00
2019,07,11,00,51,20.00
2019,07,11,00,52,19.90
2019,07,11,00,53,19.90
2019,07,11,00,54,19.90
2019,07,11,00,55,19.80
2019,07,11,00,56,19.80
2019,07,11,00,57,19.80
2019,07,11,00,58,19.80
2019,07,11,00,59,19.80
2019,07,11,01,00,19.80
2019,07,11,01,01,19.80
2019,07,11,01,02,19.70
2019,07,11,01,03,19.70
2019,07,11,01,04,19.70
2019,07,11,01,05,19.70
2019,07,11,01,06,19.70
2019,07,11,01,07,19.70
2019,07,11,01,08,19.70
2019,07,11,01,09,19.60
2019,07,11,01,10,19.60
2019,07,11,01,11,19.60
2019,07,11,01,12,19.60
2019,07,11,01,13,19.60
2019,07,11,01,14,19.60
2019,07,11,01,15,19.60
2019,07,11,01,16,19.60
2019,07,11,01,17,19.50
2019,07,11,01,18,19.50
2019,07,11,01,19,19.50
2019,07,11,01,20,19.40
2019,07,11,01,21,19.40
2019,07,11,01,22,19.40
2019,07,11,01,23,19.40
2019,07,11,01,24,19.40
2019,07,11,01,25,19.40
2019,07,11,01,26,19.50
2019,07,11,01,27,19.50
2019,07,11,01,28,19.50
2019,07,11,01,29,19.60
2019,07,11,01,30,19.60
2019,07,11,01,31,19.60
2019,07,11,01,32,19.60
2019,07,11,01,33,19.60
2019,07,11,01,34,19.60
2019,07,11,01,35,19.60
2019,07,11,01,36,19.50
2019,07,11,01,37,19.50
2019,07,11,01,38,19.50
2019,07,11,01,39,19.50
2019,07,11,01,40,19.40
2019,07,11,01,41,19.40
2019,07,11,01,42,19.40
2019,07,11,01,43,19.30
2019,07,11,01,44,19.30
2019,07,11,01,45,19.30
2019,07,11,01,46,19.20
2019,07,11,01,47,19.20
2019,07,11,01,48,19.20
2019,07,11,01,49,19.20
2019,07,11,01,50,19.10
2019,07,11,01,51,19.10
2019,07,11,01,52,19.10
2019,07,11,01,53,19.10
2019,07,11,01,54,19.00
2019,07,11,01,55,19.00
2019,07,11,01,56,19.00
2019,07,11,01,57,18.90
2019,07,11,01,58,18.90
2019,07,11,01,59,18.90
2019,07,11,02,00,18.90
2019,07,11,02,01,18.90
2019,07,11,02,02,18.90
2019,07,11,02,03,18.90
2019,07,11,02,04,18.90
2019,07,11,02,05,18.80
2019,07,11,02,06,18.80
2019,07,11,02,07,18.80
2019,07,11,02,08,18.80
2019,07,11,02,09,18.80
2019,07,11,02,10,18.80
2019,07,11,02,11,18.80
2019,07,11,02,12,18.80
2019,07,11,02,13,18.70
2019,07,11,02,14,18.70
2019,07,11,02,15,18.70
2019,07,11,02,16,18.70
2019,07,11,02,17,18.60
2019,07,11,02,18,18.60
2019,07,11,02,19,18.60
2019,07,11,02,20,18.60
2019,07,11,02,21,18.60
2019,07,11,02,22,18.60
2019,07,11,02,23,18.60
2019,07,11,02,24,18.60
2019,07,11,02,25,18.50
2019,07,11,02,26,18.50
2019,07,11,02,27,18.50
2019,07,11,02,28,18.50
2019,07,11,02,29,18.40
2019,07,11,02,30,18.40
2019,07,11,02,31,18.40
2019,07,11,02,32,18.40
2019,07,11,02,33,18.40
2019,07,11,02,34,18.40
2019,07,11,02,35,18.40
2019,07,11,02,36,18.40
2019,07,11,02,37,18.30
2019,07,11,02,38,18.30
2019,07,11,02,39,18.30
2019,07,11,02,40,18.30
2019,07,11,02,41,18.30
2019,07,11,02,42,18.30
2019,07,11,02,43,18.20
2019,07,11,02,44,18.20
2019,07,11,02,45,18.20
2019,07,11,02,46,18.20
2019,07,11,02,47,18.20
2019,07,11,02,48,18.20
2019,07,11,02,49,18.10
2019,07,11,02,50,18.10
2019,07,11,02,51,18.10
2019,07,11,02,52,18.10
2019,07,11,02,53,18.00
2019,07,11,02,54,18.00
2019,07,11,02,55,17.90
2019,07,11,02,56,17.90
2019,07,11,02,57,17.90
2019,07,11,02,58,17.90
2019,07,11,02,59,17.80
2019,07,11,03,00,17.80
2019,07,11,03,01,17.80
2019,07,11,03,02,17.80
2019,07,11,03,03,17.80
2019,07,11,03,04,17.70
2019,07,11,03,05,17.70
2019,07,11,03,06,17.70
2019,07,11,03,07,17.70
2019,07,11,03,08,17.70
2019,07,11,03,09,17.70
2019,07,11,03,10,17.70
2019,07,11,03,11,17.70
2019,07,11,03,12,17.70
2019,07,11,03,13,17.70
2019,07,11,03,14,17.60
2019,07,11,03,15,17.60
2019,07,11,03,16,17.60
2019,07,11,03,17,17.60
2019,07,11,03,18,17.60
2019,07,11,03,19,17.60
2019,07,11,03,20,17.60
2019,07,11,03,21,17.60
2019,07,11,03,22,17.60
2019,07,11,03,23,17.60
2019,07,11,03,24,17.60
2019,07,11,03,25,17.60
2019,07,11,03,26,17.60
2019,07,11,03,27,17.60
2019,07,11,03,28,17.60
2019,07,11,03,29,17.60
2019,07,11,03,30,17.60
2019,07,11,03,31,17.60
2019,07,11,03,32,17.60
2019,07,11,03,33,17.60
2019,07,11,03,34,17.60
2019,07,11,03,35,17.60
2019,07,11,03,36,17.60
2019,07,11,03,37,17.60
2019,07,11,03,38,17.60
2019,07,11,03,39,17.60
2019,07,11,03,40,17.60
2019,07,11,03,41,17.60
2019,07,11,03,42,17.60
2019,07,11,03,43,17.60
2019,07,11,03,44,17.60
2019,07,11,03,45,17.60
2019,07,11,03,46,17.60
2019,07,11,03,47,17.60
2019,07,11,03,48,17.60
2019,07,11,03,49,17.60
2019,07,11,03,50,17.60
2019,07,11,03,51,17.60
2019,07,11,03,52,17.60
2019,07,11,03,53,17.60
2019,07,11,03,54,17.60
2019,07,11,03,55,17.60
2019,07,11,03,56,17.60
2019,07,11,03,57,17.60
2019,07,11,03,58,17.60
2019,07,11,03,59,17.60
2019,07,11,04,00,17.60
2019,07,11,04,01,17.60
2019,07,11,04,02,17.60
2019,07,11,04,03,17.60
2019,07,11,04,04,17.60
2019,07,11,04,05,17.70
2019,07,11,04,06,17.70
2019,07,11,04,07,17.80
2019,07,11,04,08,17.90
2019,07,11,04,09,18.00
2019,07,11,04,10,18.20
2019,07,11,04,11,18.30
2019,07,11,04,12,18.50
2019,07,11,04,13,18.70
2019,07,11,04,14,18.90
2019,07,11,04,15,19.10
2019,07,11,04,16,19.20
2019,07,11,04,17,19.30
2019,07,11,04,18,19.40
2019,07,11,04,19,19.50
2019,07,11,04,20,19.50
2019,07,11,04,21,19.60
2019,07,11,04,22,19.60
2019,07,11,04,23,19.60
2019,07,11,04,24,19.60
2019,07,11,04,25,19.60
2019,07,11,04,26,19.60
2019,07,11,04,27,19.60
2019,07,11,04,28,19.60
2019,07,11,04,29,19.60
2019,07,11,04,30,19.60
2019,07,11,04,31,19.60
2019,07,11,04,32,19.50
2019,07,11,04,33,19.40
2019,07,11,04,34,19.40
2019,07,11,04,35,19.30
2019,07,11,04,36,19.30
2019,07,11,04,37,19.30
2019,07,11,04,38,19.20
2019,07,11,04,39,19.20
2019,07,11,04,40,19.20
2019,07,11,04,41,19.10
2019,07,11,04,42,19.10
2019,07,11,04,43,19.10
2019,07,11,04,44,19.10
2019,07,11,04,45,19.10
2019,07,11,04,46,19.10
2019,07,11,04,47,19.00
2019,07,11,04,48,19.00
2019,07,11,04,49,19.00
2019,07,11,04,50,18.90
2019,07,11,04,51,18.90
2019,07,11,04,52,18.90
2019,07,11,04,53,18.90
2019,07,11,04,54,18.80
2019,07,11,04,55,18.80
2019,07,11,04,56,18.80
2019,07,11,04,57,18.70
2019,07,11,04,58,18.70
2019,07,11,04,59,18.70
2019,07,11,05,00,18.60
2019,07,11,05,01,18.60
2019,07,11,05,02,18.60
2019,07,11,05,03,18.60
2019,07,11,05,04,18.60
2019,07,11,05,05,18.60
2019,07,11,05,06,18.50
2019,07,11,05,07,18.50
2019,07,11,05,08,18.50
2019,07,11,05,09,18.50
2019,07,11,05,10,18.50
2019,07,11,05,11,18.50
2019,07,11,05,12,18.50
2019,07,11,05,13,18.50
2019,07,11,05,14,18.40
2019,07,11,05,15,18.40
2019,07,11,05,16,18.40
2019,07,11,05,17,18.30
2019,07,11,05,18,18.30
2019,07,11,05,19,18.30
2019,07,11,05,20,18.30
2019,07,11,05,21,18.30
2019,07,11,05,22,18.30
2019,07,11,05,23,18.30
2019,07,11,05,24,18.30
2019,07,11,05,25,18.30
2019,07,11,05,26,18.20
2019,07,11,05,27,18.20
2019,07,11,05,28,18.10
2019,07,11,05,29,18.10
2019,07,11,05,30,18.10
2019,07,11,05,31,18.10
2019,07,11,05,32,18.10
2019,07,11,05,33,18.10
2019,07,11,05,34,18.20
2019,07,11,05,35,18.20
2019,07,11,05,36,18.30
2019,07,11,05,37,18.40
2019,07,11,05,38,18.40
2019,07,11,05,39,18.50
2019,07,11,05,40,18.50
2019,07,11,05,41,18.50
2019,07,11,05,42,18.40
2019,07,11,05,43,18.40
2019,07,11,05,44,18.40
2019,07,11,05,45,18.40
2019,07,11,05,46,18.30
2019,07,11,05,47,18.30
2019,07,11,05,48,18.20
2019,07,11,05,49,18.10
2019,07,11,05,50,18.00
2019,07,11,05,51,17.90
2019,07,11,05,52,17.80
2019,07,11,05,53,17.70
2019,07,11,05,54,17.60
2019,07,11,05,55,17.50
2019,07,11,05,56,17.40
2019,07,11,05,57,17.30
2019,07,11,05,58,17.20
2019,07,11,05,59,17.10
2019,07,11,06,00,17.00
2019,07,11,06,01,17.00
2019,07,11,06,02,16.90
2019,07,11,06,03,16.80
2019,07,11,06,04,16.80
2019,07,11,06,05,16.70
2019,07,11,06,06,16.60
2019,07,11,06,07,16.60
2019,07,11,06,08,16.50
2019,07,11,06,09,16.50
2019,07,11,06,10,16.40
2019,07,11,06,11,16.40
2019,07,11,06,12,16.30
2019,07,11,06,13,16.20
2019,07,11,06,14,16.20
2019,07,11,06,15,16.10
2019,07,11,06,16,16.10
2019,07,11,06,17,16.00
2019,07,11,06,18,16.00
2019,07,11,06,19,16.00
2019,07,11,06,20,15.90
2019,07,11,06,21,15.90
2019,07,11,06,22,15.90
2019,07,11,06,23,15.90
2019,07,11,06,24,15.90
2019,07,11,06,25,15.90
2019,07,11,06,26,15.80
2019,07,11,06,27,15.80
2019,07,11,06,28,15.80
2019,07,11,06,29,15.80
2019,07,11,06,30,15.80
2019,07,11,06,31,15.80
2019,07,11,06,32,15.80
2019,07,11,06,33,15.70
2019,07,11,06,34,15.70
2019,07,11,06,35,15.70
2019,07,11,06,36,15.70
2019,07,11,06,37,15.70
2019,07,11,06,38,15.70
2019,07,11,06,39,15.60
2019,07,11,06,40,15.60
2019,07,11,06,41,15.60
2019,07,11,06,42,15.60
2019,07,11,06,43,15.60
2019,07,11,06,44,15.60
2019,07,11,06,45,15.60
2019,07,11,06,46,15.60
2019,07,11,06,47,15.60
2019,07,11,06,48,15.60
2019,07,11,06,49,15.60
2019,07,11,06,50,15.60
2019,07,11,06,51,15.60
2019,07,11,06,52,15.60
2019,07,11,06,53,15.50
2019,07,11,06,54,15.50
2019,07,11,06,55,15.50
2019,07,11,06,56,15.40
2019,07,11,06,57,15.40
2019,07,11,06,58,15.40
2019,07,11,06,59,15.40
2019,07,11,07,00,15.40
2019,07,11,07,01,15.40
2019,07,11,07,02,15.40
2019,07,11,07,03,15.50
2019,07,11,07,04,15.50
2019,07,11,07,05,15.50
2019,07,11,07,06,15.50
2019,07,11,07,07,15.50
2019,07,11,07,08,15.60
2019,07,11,07,09,15.60
2019,07,11,07,10,15.60
2019,07,11,07,11,15.60
2019,07,11,07,12,15.60
2019,07,11,07,13,15.60
2019,07,11,07,14,15.60
2019,07,11,07,15,15.60
2019,07,11,07,16,15.60
2019,07,11,07,17,15.60
2019,07,11,07,18,15.60
2019,07,11,07,19,15.60
2019,07,11,07,20,15.60
2019,07,11,07,21,15.60
2019,07,11,07,22,15.60
2019,07,11,07,23,15.60
2019,07,11,07,24,15.60
2019,07,11,07,25,15.70
2019,07,11,07,26,15.70
2019,07,11,07,27,15.70
2019,07,11,07,28,15.70
2019,07,11,07,29,15.70
2019,07,11,07,30,15.70
2019,07,11,07,31,15.70
2019,07,11,07,32,15.70
2019,07,11,07,33,15.70
2019,07,11,07,34,15.70
2019,07,11,07,35,15.70
2019,07,11,07,36,15.70
2019,07,11,07,37,15.70
2019,07,11,07,38,15.70
2019,07,11,07,39,15.70
2019,07,11,07,40,15.70
2019,07,11,07,41,15.70
2019,07,11,07,42,15.60
2019,07,11,07,43,15.60
2019,07,11,07,44,15.60
2019,07,11,07,45,15.60
2019,07,11,07,46,15.60
2019,07,11,07,47,15.60
2019,07,11,07,48,15.60
2019,07,11,07,49,15.60
2019,07,11,07,50,15.50
2019,07,11,07,51,15.60
2019,07,11,07,52,15.60
2019,07,11,07,53,15.60
2019,07,11,07,54,15.60
2019,07,11,07,55,15.60
2019,07,11,07,56,15.60
2019,07,11,07,57,15.60
2019,07,11,07,58,15.60
2019,07,11,07,59,15.60
2019,07,11,08,00,15.60
2019,07,11,08,01,15.60
2019,07,11,08,02,15.60
2019,07,11,08,03,15.60
2019,07,11,08,04,15.60
2019,07,11,08,05,15.60
2019,07,11,08,06,15.60
2019,07,11,08,07,15.60
2019,07,11,08,08,15.50
2019,07,11,08,09,15.50
2019,07,11,08,10,15.50
2019,07,11,08,11,15.50
2019,07,11,08,12,15.50
2019,07,11,08,13,15.50
2019,07,11,08,14,15.50
2019,07,11,08,15,15.50
2019,07,11,08,16,15.50
2019,07,11,08,17,15.50
2019,07,11,08,18,15.50
2019,07,11,08,19,15.50
2019,07,11,08,20,15.50
2019,07,11,08,21,15.50
2019,07,11,08,22,15.40
2019,07,11,08,23,15.40
2019,07,11,08,24,15.40
2019,07,11,08,25,15.40
2019,07,11,08,26,15.40
2019,07,11,08,27,15.40
2019,07,11,08,28,15.40
2019,07,11,08,29,15.30
2019,07,11,08,30,15.30
2019,07,11,08,31,15.30
2019,07,11,08,32,15.30
2019,07,11,08,33,15.30
2019,07,11,08,34,15.30
2019,07,11,08,35,15.30
2019,07,11,08,36,15.30
2019,07,11,08,37,15.30
2019,07,11,08,38,15.30
2019,07,11,08,39,15.30
2019,07,11,08,40,15.30
2019,07,11,08,41,15.30
2019,07,11,08,42,15.30
2019,07,11,08,43,15.30
2019,07,11,08,44,15.30
2019,07,11,08,45,15.40
2019,07,11,08,46,15.40
2019,07,11,08,47,15.40
2019,07,11,08,48,15.40
2019,07,11,08,49,15.50
2019,07,11,08,50,15.50
2019,07,11,08,51,15.50
2019,07,11,08,52,15.50
2019,07,11,08,53,15.60
2019,07,11,08,54,15.60
2019,07,11,08,55,15.60
2019,07,11,08,56,15.70
2019,07,11,08,57,15.70
2019,07,11,08,58,15.70
2019,07,11,08,59,15.70
2019,07,11,09,00,15.70
2019,07,11,09,01,15.70
2019,07,11,09,02,15.70
2019,07,11,09,03,15.70
2019,07,11,09,04,15.70
2019,07,11,09,05,15.70
2019,07,11,09,06,15.70
2019,07,11,09,07,15.70
2019,07,11,09,08,15.70
2019,07,11,09,09,15.70
2019,07,11,09,10,15.70
2019,07,11,09,11,15.70
2019,07,11,09,12,15.70
2019,07,11,09,13,15.70
2019,07,11,09,14,15.70
2019,07,11,09,15,15.70
2019,07,11,09,16,15.70
2019,07,11,09,17,15.70
2019,07,11,09,18,15.70
2019,07,11,09,19,15.70
2019,07,11,09,20,15.70
2019,07,11,09,21,15.70
2019,07,11,09,22,15.70
2019,07,11,09,23,15.70
2019,07,11,09,24,15.80
2019,07,11,09,25,15.80
2019,07,11,09,26,15.80
2019,07,11,09,27,15.80
2019,07,11,09,28,15.80
2019,07,11,09,29,15.80
2019,07,11,09,30,15.80
2019,07,11,09,31,15.80
2019,07,11,09,32,15.90
2019,07,11,09,33,15.90
2019,07,11,09,34,15.90
2019,07,11,09,35,15.90
2019,07,11,09,36,15.90
2019,07,11,09,37,15.90
2019,07,11,09,38,15.90
2019,07,11,09,39,15.90
2019,07,11,09,40,15.90
2019,07,11,09,41,15.90
2019,07,11,09,42,15.90
2019,07,11,09,43,16.00
2019,07,11,09,44,16.00
2019,07,11,09,45,16.00
2019,07,11,09,46,16.10
2019,07,11,09,47,16.10
2019,07,11,09,48,16.10
2019,07,11,09,49,16.10
2019,07,11,09,50,16.10
2019,07,11,09,51,16.10
2019,07,11,09,52,16.10
2019,07,11,09,53,16.10
2019,07,11,09,54,16.10
2019,07,11,09,55,16.10
2019,07,11,09,56,16.10
2019,07,11,09,57,16.10
2019,07,11,09,58,16.10
2019,07,11,09,59,16.10
2019,07,11,10,00,16.20
2019,07,11,10,01,16.20
2019,07,11,10,02,16.20
2019,07,11,10,03,16.20
2019,07,11,10,04,16.20
2019,07,11,10,05,16.20
2019,07,11,10,06,16.20
2019,07,11,10,07,16.20
2019,07,11,10,08,16.30
2019,07,11,10,09,16.30
2019,07,11,10,10,16.30
2019,07,11,10,11,16.30
2019,07,11,10,12,16.30
2019,07,11,10,13,16.30
2019,07,11,10,14,16.30
2019,07,11,10,15,16.30
2019,07,11,10,16,16.30
2019,07,11,10,17,16.30
2019,07,11,10,18,16.30
2019,07,11,10,19,16.30
2019,07,11,10,20,16.30
2019,07,11,10,21,16.30
2019,07,11,10,22,16.30
2019,07,11,10,23,16.30
2019,07,11,10,24,16.30
2019,07,11,10,25,16.40
2019,07,11,10,26,16.40
2019,07,11,10,27,16.50
2019,07,11,10,28,16.50
2019,07,11,10,29,16.60
2019,07,11,10,30,16.60
2019,07,11,10,31,16.60
2019,07,11,10,32,16.70
2019,07,11,10,33,16.70
2019,07,11,10,34,16.70
2019,07,11,10,35,16.80
2019,07,11,10,36,16.80
2019,07,11,10,37,16.90
2019,07,11,10,38,16.90
2019,07,11,10,39,17.00
2019,07,11,10,40,17.00
2019,07,11,10,41,17.10
2019,07,11,10,42,17.10
2019,07,11,10,43,17.20
2019,07,11,10,44,17.20
2019,07,11,10,45,17.30
2019,07,11,10,46,17.30
2019,07,11,10,47,17.40
2019,07,11,10,48,17.40
2019,07,11,10,49,17.50
2019,07,11,10,50,17.50
2019,07,11,10,51,17.60
2019,07,11,10,52,17.60
2019,07,11,10,53,17.60
2019,07,11,10,54,17.60
2019,07,11,10,55,17.70
2019,07,11,10,56,17.70
2019,07,11,10,57,17.70
2019,07,11,10,58,17.70
2019,07,11,10,59,17.80
2019,07,11,11,00,17.80
2019,07,11,11,01,17.80
2019,07,11,11,02,17.80
2019,07,11,11,03,17.80
2019,07,11,11,04,17.80
2019,07,11,11,05,17.80
2019,07,11,11,06,17.90
2019,07,11,11,07,17.90
2019,07,11,11,08,17.90
2019,07,11,11,09,17.90
2019,07,11,11,10,17.90
2019,07,11,11,11,17.90
2019,07,11,11,12,17.90
2019,07,11,11,13,17.80
2019,07,11,11,14,17.80
2019,07,11,11,15,17.80
2019,07,11,11,16,17.80
2019,07,11,11,17,17.80
2019,07,11,11,18,17.80
2019,07,11,11,19,17.80
2019,07,11,11,20,17.80
2019,07,11,11,21,17.80
2019,07,11,11,22,17.80
2019,07,11,11,23,17.80
2019,07,11,11,24,17.80
2019,07,11,11,25,17.80
2019,07,11,11,26,17.80
2019,07,11,11,27,17.80
2019,07,11,11,28,17.80
2019,07,11,11,29,17.80
2019,07,11,11,30,17.80
2019,07,11,11,31,17.80
2019,07,11,11,32,17.90
2019,07,11,11,33,17.90
2019,07,11,11,34,17.90
2019,07,11,11,35,17.90
2019,07,11,11,36,17.90
2019,07,11,11,37,17.90
2019,07,11,11,38,17.90
2019,07,11,11,39,17.90
2019,07,11,11,40,17.90
2019,07,11,11,41,17.90
2019,07,11,11,42,17.90
2019,07,11,11,43,17.90
2019,07,11,11,44,17.90
2019,07,11,11,45,17.90
2019,07,11,11,46,17.90
2019,07,11,11,47,17.90
2019,07,11,11,48,17.90
2019,07,11,11,49,17.90
2019,07,11,11,50,17.90
2019,07,11,11,51,17.90
2019,07,11,11,52,18.00
2019,07,11,11,53,18.00
2019,07,11,11,54,18.00
2019,07,11,11,55,18.00
2019,07,11,11,56,18.00
2019,07,11,11,57,18.10
2019,07,11,11,58,18.10
2019,07,11,11,59,18.00
2019,07,11,12,00,18.00
2019,07,11,12,01,18.00
2019,07,11,12,02,18.00
2019,07,11,12,03,18.00
2019,07,11,12,04,17.90
2019,07,11,12,05,17.90
2019,07,11,12,06,17.90
2019,07,11,12,07,17.90
2019,07,11,12,08,17.80
2019,07,11,12,09,17.80
2019,07,11,12,10,17.80
2019,07,11,12,11,17.70
2019,07,11,12,12,17.70
2019,07,11,12,13,17.70
2019,07,11,12,14,17.70
2019,07,11,12,15,17.70
2019,07,11,12,16,17.70
2019,07,11,12,17,17.70
2019,07,11,12,18,17.70
2019,07,11,12,19,17.70
2019,07,11,12,20,17.70
2019,07,11,12,21,17.70
2019,07,11,12,22,17.70
2019,07,11,12,23,17.70
2019,07,11,12,24,17.70
2019,07,11,12,25,17.70
2019,07,11,12,26,17.70
2019,07,11,12,27,17.80
2019,07,11,12,28,17.80
2019,07,11,12,29,17.80
2019,07,11,12,30,17.80
2019,07,11,12,31,17.80
2019,07,11,12,32,17.80
2019,07,11,12,33,17.80
2019,07,11,12,34,17.90
2019,07,11,12,35,17.90
2019,07,11,12,36,17.90
2019,07,11,12,37,17.90
2019,07,11,12,38,17.90
2019,07,11,12,39,17.90
2019,07,11,12,40,17.90
2019,07,11,12,41,17.90
2019,07,11,12,42,17.90
2019,07,11,12,43,17.90
2019,07,11,12,44,17.90
2019,07,11,12,45,17.90
2019,07,11,12,46,17.90
2019,07,11,12,47,17.90
2019,07,11,12,48,17.90
2019,07,11,12,49,17.90
2019,07,11,12,50,17.90
2019,07,11,12,51,17.90
2019,07,11,12,52,17.90
2019,07,11,12,53,17.90
2019,07,11,12,54,17.90
2019,07,11,12,55,17.90
2019,07,11,12,56,17.90
2019,07,11,12,57,17.90
2019,07,11,12,58,17.90
2019,07,11,12,59,17.90
2019,07,11,13,00,17.90
2019,07,11,13,01,17.90
2019,07,11,13,02,17.90
2019,07,11,13,03,17.90
2019,07,11,13,04,17.90
2019,07,11,13,05,17.90
2019,07,11,13,06,17.90
2019,07,11,13,07,18.00
2019,07,11,13,08,18.00
2019,07,11,13,09,18.00
2019,07,11,13,10,18.10
2019,07,11,13,11,18.10
2019,07,11,13,12,18.10
2019,07,11,13,13,18.10
2019,07,11,13,14,18.10
2019,07,11,13,15,18.10
2019,07,11,13,16,18.20
2019,07,11,13,17,18.20
2019,07,11,13,18,18.20
2019,07,11,13,19,18.20
2019,07,11,13,20,18.20
2019,07,11,13,21,18.20
2019,07,11,13,22,18.30
2019,07,11,13,23,18.30
2019,07,11,13,24,18.30
2019,07,11,13,25,18.30
2019,07,11,13,26,18.30
2019,07,11,13,27,18.30
2019,07,11,13,28,18.40
2019,07,11,13,29,18.40
2019,07,11,13,30,18.40
2019,07,11,13,31,18.40
2019,07,11,13,32,18.40
2019,07,11,13,33,18.50
2019,07,11,13,34,18.50
2019,07,11,13,35,18.50
2019,07,11,13,36,18.50
2019,07,11,13,37,18.60
2019,07,11,13,38,18.60
2019,07,11,13,39,18.60
2019,07,11,13,40,18.60
2019,07,11,13,41,18.60
2019,07,11,13,42,18.60
2019,07,11,13,43,18.60
2019,07,11,13,44,18.70
2019,07,11,13,45,18.70
2019,07,11,13,46,18.70
2019,07,11,13,47,18.80
2019,07,11,13,48,18.80
2019,07,11,13,49,18.80
2019,07,11,13,50,18.80
2019,07,11,13,51,18.80
2019,07,11,13,52,18.80
2019,07,11,13,53,18.90
2019,07,11,13,54,18.90
2019,07,11,13,55,18.90
2019,07,11,13,56,18.90
2019,07,11,13,57,18.90
2019,07,11,13,58,19.00
2019,07,11,13,59,19.00
2019,07,11,14,00,19.00
2019,07,11,14,01,19.10
2019,07,11,14,02,19.10
2019,07,11,14,03,19.10
2019,07,11,14,04,19.10
2019,07,11,14,05,19.10
2019,07,11,14,06,19.10
2019,07,11,14,07,19.10
2019,07,11,14,08,19.10
2019,07,11,14,09,19.10
2019,07,11,14,10,19.20
2019,07,11,14,11,19.20
2019,07,11,14,12,19.20
2019,07,11,14,13,19.20
2019,07,11,14,14,19.20
2019,07,11,14,15,19.20
2019,07,11,14,16,19.20
2019,07,11,14,17,19.20
2019,07,11,14,18,19.20
2019,07,11,14,19,19.20
2019,07,11,14,20,19.30
2019,07,11,14,21,19.30
2019,07,11,14,22,19.30
2019,07,11,14,23,19.30
2019,07,11,14,24,19.30
2019,07,11,14,25,19.30
2019,07,11,14,26,19.30
2019,07,11,14,27,19.30
2019,07,11,14,28,19.30
2019,07,11,14,29,19.30
2019,07,11,14,30,19.30
2019,07,11,14,31,19.30
2019,07,11,14,32,19.30
2019,07,11,14,33,19.30
2019,07,11,14,34,19.30
2019,07,11,14,35,19.30
2019,07,11,14,36,19.30
2019,07,11,14,37,19.30
2019,07,11,14,38,19.30
2019,07,11,14,39,19.30
2019,07,11,14,40,19.30
2019,07,11,14,41,19.30
2019,07,11,14,42,19.30
2019,07,11,14,43,19.30
2019,07,11,14,44,19.30
2019,07,11,14,45,19.30
2019,07,11,14,46,19.30
2019,07,11,14,47,19.30
2019,07,11,14,48,19.30
2019,07,11,14,49,19.30
2019,07,11,14,50,19.30
2019,07,11,14,51,19.30
2019,07,11,14,52,19.30
2019,07,11,14,53,19.30
2019,07,11,14,54,19.30
2019,07,11,14,55,19.30
2019,07,11,14,56,19.30
2019,07,11,14,57,19.30
2019,07,11,14,58,19.30
2019,07,11,14,59,19.30
2019,07,11,15,00,19.30
2019,07,11,15,01,19.30
2019,07,11,15,02,19.40
2019,07,11,15,03,19.40
2019,07,11,15,04,19.40
2019,07,11,15,05,19.40
2019,07,11,15,06,19.40
2019,07,11,15,07,19.40
2019,07,11,15,08,19.40
2019,07,11,15,09,19.40
2019,07,11,15,10,19.40
2019,07,11,15,11,19.40
2019,07,11,15,12,19.40
2019,07,11,15,13,19.40
2019,07,11,15,14,19.40
2019,07,11,15,15,19.40
2019,07,11,15,16,19.40
2019,07,11,15,17,19.50
2019,07,11,15,18,19.50
2019,07,11,15,19,19.50
2019,07,11,15,20,19.50
2019,07,11,15,21,19.60
2019,07,11,15,22,19.60
2019,07,11,15,23,19.60
2019,07,11,15,24,19.60
2019,07,11,15,25,19.60
2019,07,11,15,26,19.60
2019,07,11,15,27,19.60
2019,07,11,15,28,19.60
2019,07,11,15,29,19.70
2019,07,11,15,30,19.70
2019,07,11,15,31,19.70
2019,07,11,15,32,19.70
2019,07,11,15,33,19.70
2019,07,11,15,34,19.80
2019,07,11,15,35,19.80
2019,07,11,15,36,19.80
2019,07,11,15,37,19.90
2019,07,11,15,38,19.90
2019,07,11,15,39,20.00
2019,07,11,15,40,20.00
2019,07,11,15,41,20.10
2019,07,11,15,42,20.10
2019,07,11,15,43,20.10
2019,07,11,15,44,20.10
2019,07,11,15,45,20.10
2019,07,11,15,46,20.20
2019,07,11,15,47,20.20
2019,07,11,15,48,20.20
2019,07,11,15,49,20.30
2019,07,11,15,50,20.30
2019,07,11,15,51,20.30
2019,07,11,15,52,20.30
2019,07,11,15,53,20.40
2019,07,11,15,54,20.40
2019,07,11,15,55,20.40
2019,07,11,15,56,20.50
2019,07,11,15,57,20.50
2019,07,11,15,58,20.50
2019,07,11,15,59,20.60
2019,07,11,16,00,20.70
2019,07,11,16,01,20.70
2019,07,11,16,02,20.80
2019,07,11,16,03,20.80
2019,07,11,16,04,20.90
2019,07,11,16,05,20.90
2019,07,11,16,06,21.00
2019,07,11,16,07,21.00
2019,07,11,16,08,21.10
2019,07,11,16,09,21.10
2019,07,11,16,10,21.10
2019,07,11,16,11,21.10
2019,07,11,16,12,21.20
2019,07,11,16,13,21.20
2019,07,11,16,14,21.20
2019,07,11,16,15,21.20
2019,07,11,16,16,21.20
2019,07,11,16,17,21.20
2019,07,11,16,18,21.20
2019,07,11,16,19,21.30
2019,07,11,16,20,21.30
2019,07,11,16,21,21.30
2019,07,11,16,22,21.30
2019,07,11,16,23,21.30
2019,07,11,16,24,21.40
2019,07,11,16,25,21.40
2019,07,11,16,26,21.50
2019,07,11,16,27,21.60
2019,07,11,16,28,21.60
2019,07,11,16,29,21.60
2019,07,11,16,30,21.70
2019,07,11,16,31,21.70
2019,07,11,16,32,21.70
2019,07,11,16,33,21.70
2019,07,11,16,34,21.80
2019,07,11,16,35,21.80
2019,07,11,16,36,21.80
2019,07,11,16,37,21.70
2019,07,11,16,38,21.70
2019,07,11,16,39,21.70
2019,07,11,16,40,21.70
2019,07,11,16,41,21.70
2019,07,11,16,42,21.70
2019,07,11,16,43,21.70
2019,07,11,16,44,21.70
2019,07,11,16,45,21.70
2019,07,11,16,46,21.70
2019,07,11,16,47,21.80
2019,07,11,16,48,21.80
2019,07,11,16,49,21.80
2019,07,11,16,50,21.80
2019,07,11,16,51,21.80
2019,07,11,16,52,21.90
2019,07,11,16,53,21.90
2019,07,11,16,54,21.90
2019,07,11,16,55,21.90
2019,07,11,16,56,21.90
2019,07,11,16,57,21.90
2019,07,11,16,58,22.00
2019,07,11,16,59,22.00
2019,07,11,17,00,22.00
2019,07,11,17,01,22.10
2019,07,11,17,02,22.10
2019,07,11,17,03,22.10
2019,07,11,17,04,22.10
2019,07,11,17,05,22.20
2019,07,11,17,06,22.20
2019,07,11,17,07,22.30
2019,07,11,17,08,22.30
2019,07,11,17,09,22.30
2019,07,11,17,10,22.30
2019,07,11,17,11,22.30
2019,07,11,17,12,22.30
2019,07,11,17,13,22.30
2019,07,11,17,14,22.40
2019,07,11,17,15,22.40
2019,07,11,17,16,22.40
2019,07,11,17,17,22.40
2019,07,11,17,18,22.50
2019,07,11,17,19,22.50